tititudorancea.com
Station Historical Data
Daily Summary for February 11, 2019 Units:  Metric    English   Both
« Previous Day
Next Day »
Daily Weekly Monthly Yearly Custom
  High: Low: Average:
Temperature: -17.8 °C 10.8 °C 17.6 °C
Dew Point: -17.8 °C 9.6 °C 12.3 °C
Humidity: Humidity % 52 % 73 %
Wind Speed: 0 km/h 0 km/h 13.5 km/h
Wind Gust: 0 km/h - -
Wind:- - WNW
Pressure: 0 hPa 996.2 hPa -
Precipitation: 0 mm    
Historical Graphs
 
 
Ararat weather Find more about Weather in Ararat, AU


 



 


Tabular Data for February 11, 2019
Time Temperature Dew Point Pressure Wind Wind Speed Wind Gust Humidity Rainfall Rate (Hourly)
-17.8 °C -17.8 °C 0 hPa Calm     Humidity % 0 mm
00:04 15.4 °C 11.4 °C 1006.3 hPa SW 3.7 km/h 2.1 km/h 77 % 0 mm
00:09 15.3 °C 11.3 °C 1006.3 hPa SW 1.9 km/h   77 % 0 mm
00:14 15.2 °C 11.4 °C 1006.3 hPa SW 3.7 km/h 1.9 km/h 78 % 0 mm
00:19 15.1 °C 11.3 °C 1006.3 hPa SW 3.7 km/h 0.5 km/h 78 % 0 mm
00:24 15.1 °C 11.2 °C 1006.3 hPa Calm     78 % 0 mm
00:29 14.9 °C 11.1 °C 1006.3 hPa Calm     78 % 0 mm
00:34 14.8 °C 11.2 °C 1006.3 hPa Calm     79 % 0 mm
00:39 14.6 °C 11 °C 1006.3 hPa Calm     79 % 0 mm
00:44 14.5 °C 11.1 °C 1006.3 hPa SW 3.2 km/h 2.3 km/h 80 % 0 mm
00:49 14.4 °C 11.2 °C 1006.3 hPa SW 3.7 km/h   81 % 0 mm
00:54 14.3 °C 11.1 °C 1006.3 hPa SW 3.7 km/h 1 km/h 81 % 0 mm
00:59 14.2 °C 11.2 °C 1006.3 hPa Calm     82 % 0 mm
01:04 14.1 °C 11.1 °C 1006 hPa Calm     82 % 0 mm
01:09 14 °C 11 °C 1006 hPa Calm     82 % 0 mm
01:14 13.9 °C 11.1 °C 1006 hPa Calm     83 % 0 mm
01:19 13.8 °C 10.9 °C 1006 hPa Calm     83 % 0 mm
01:24 13.7 °C 10.9 °C 1006 hPa Calm     83 % 0 mm
01:29 13.7 °C 11 °C 1006 hPa Calm     84 % 0 mm
01:34 13.6 °C 10.9 °C 1006 hPa Calm     84 % 0 mm
01:39 13.5 °C 10.8 °C 1006 hPa Calm     84 % 0 mm
01:44 13.5 °C 11 °C 1005.6 hPa SW 3.2 km/h 2.1 km/h 85 % 0 mm
01:49 13.4 °C 10.9 °C 1005.6 hPa SW 3.7 km/h 1.4 km/h 85 % 0 mm
01:54 13.4 °C 10.9 °C 1005.6 hPa Calm     85 % 0 mm
01:59 13.2 °C 10.8 °C 1005.3 hPa Calm     85 % 0 mm
02:04 13.1 °C 10.8 °C 1005.3 hPa SW 3.7 km/h 1.6 km/h 86 % 0 mm
02:09 13.1 °C 10.8 °C 1005.3 hPa SW 5.6 km/h 3.5 km/h 86 % 0 mm
02:14 13.1 °C 11 °C 1005.3 hPa SW 3.7 km/h 1.8 km/h 87 % 0 mm
02:19 13.1 °C 10.8 °C 1005.3 hPa SW 3.2 km/h 1.6 km/h 86 % 0 mm
02:24 13.1 °C 10.8 °C 1005.3 hPa Calm     86 % 0 mm
02:29 13 °C 10.9 °C 1005 hPa Calm     87 % 0 mm
02:34 12.9 °C 10.8 °C 1005 hPa Calm     87 % 0 mm
02:39 13 °C 10.9 °C 1005 hPa Calm     87 % 0 mm
02:44 13 °C 10.9 °C 1005 hPa Calm     87 % 0 mm
02:49 12.9 °C 10.8 °C 1004.6 hPa Calm     87 % 0 mm
02:54 12.9 °C 10.8 °C 1004.6 hPa SW 3.7 km/h 0.8 km/h 87 % 0 mm
02:59 12.9 °C 11 °C 1004.6 hPa Calm     88 % 0 mm
03:04 12.9 °C 10.8 °C 1004.6 hPa Calm     87 % 0 mm
03:09 12.8 °C 10.8 °C 1004.6 hPa Calm     88 % 0 mm
03:14 12.7 °C 10.8 °C 1004.6 hPa Calm     88 % 0 mm
03:19 12.7 °C 10.7 °C 1004.3 hPa SW 1.9 km/h 1.4 km/h 88 % 0 mm
03:24 12.7 °C 10.7 °C 1004.3 hPa Calm     88 % 0 mm
03:29 12.7 °C 10.7 °C 1004.3 hPa Calm     88 % 0 mm
03:34 12.6 °C 10.8 °C 1004.3 hPa Calm     89 % 0 mm
03:39 12.6 °C 10.8 °C 1004.3 hPa Calm     89 % 0 mm
03:44 12.4 °C 10.6 °C 1004.3 hPa Calm     89 % 0 mm
03:49 12.4 °C 10.6 °C 1004.3 hPa SW 1.6 km/h   89 % 0 mm
03:54 12.4 °C 10.7 °C 1004.3 hPa SW 3.7 km/h   89 % 0 mm
03:59 12.4 °C 10.7 °C 1003.9 hPa Calm     89 % 0 mm
04:04 12.3 °C 10.6 °C 1003.9 hPa Calm     89 % 0 mm
04:09 12.2 °C 10.4 °C 1003.9 hPa Calm     89 % 0 mm
04:14 12.2 °C 10.4 °C 1003.9 hPa Calm     89 % 0 mm
04:19 12.2 °C 10.4 °C 1003.9 hPa Calm     89 % 0 mm
04:24 12 °C 10.4 °C 1003.9 hPa SW 1.9 km/h   90 % 0 mm
04:29 11.9 °C 10.3 °C 1003.9 hPa Calm     90 % 0 mm
04:34 11.9 °C 10.3 °C 1004.3 hPa Calm     90 % 0 mm
04:39 11.9 °C 10.3 °C 1003.9 hPa Calm     90 % 0 mm
04:44 11.8 °C 10.2 °C 1003.9 hPa Calm     90 % 0 mm
04:49 11.7 °C 10.1 °C 1003.9 hPa Calm     90 % 0 mm
04:54 11.7 °C 10.2 °C 1003.6 hPa Calm     91 % 0 mm
04:59 11.7 °C 10.2 °C 1003.6 hPa Calm     91 % 0 mm
05:04 11.6 °C 9.9 °C 1003.9 hPa Calm     90 % 0 mm
05:09 11.5 °C 9.9 °C 1003.9 hPa Calm     90 % 0 mm
05:14 11.5 °C 10.1 °C 1003.6 hPa SW 1.6 km/h 1.9 km/h 91 % 0 mm
05:19 11.5 °C 10.1 °C 1003.9 hPa Calm     91 % 0 mm
05:24 11.4 °C 10 °C 1003.6 hPa Calm     91 % 0 mm
05:29 11.4 °C 10 °C 1003.6 hPa Calm     91 % 0 mm
05:34 11.4 °C 9.9 °C 1003.6 hPa Calm     91 % 0 mm
05:39 11.3 °C 9.9 °C 1003.6 hPa Calm     91 % 0 mm
05:44 11.2 °C 9.8 °C 1003.6 hPa Calm     91 % 0 mm
05:49 11.1 °C 9.7 °C 1003.6 hPa Calm     91 % 0 mm
05:54 11.1 °C 9.8 °C 1003.6 hPa Calm     92 % 0 mm
05:59 11.1 °C 9.8 °C 1003.6 hPa SW 5.6 km/h 1.4 km/h 92 % 0 mm
06:04 11 °C 9.7 °C 1003.6 hPa Calm     92 % 0 mm
06:09 11 °C 9.7 °C 1003.6 hPa Calm     92 % 0 mm
06:14 10.9 °C 9.7 °C 1003.6 hPa Calm     92 % 0 mm
06:19 10.9 °C 9.7 °C 1003.9 hPa SW 3.2 km/h 1 km/h 92 % 0 mm
06:24 10.9 °C 9.7 °C 1003.6 hPa Calm     92 % 0 mm
06:29 10.9 °C 9.7 °C 1003.9 hPa SW 3.7 km/h 0.6 km/h 92 % 0 mm
06:34 10.9 °C 9.7 °C 1003.9 hPa Calm     92 % 0 mm
06:39 10.9 °C 9.7 °C 1003.9 hPa Calm     92 % 0 mm
06:44 10.8 °C 9.6 °C 1003.9 hPa Calm     92 % 0 mm
06:49 10.8 °C 9.7 °C 1003.9 hPa SW 5.6 km/h 3.5 km/h 93 % 0 mm
06:54 10.9 °C 9.8 °C 1003.9 hPa Calm     93 % 0 mm
06:59 10.9 °C 9.8 °C 1003.9 hPa Calm     93 % 0 mm
07:04 11.1 °C 9.9 °C 1003.9 hPa Calm     93 % 0 mm
07:09 11.2 °C 10.3 °C 1003.9 hPa Calm     94 % 0 mm
07:14 11.2 °C 10.1 °C 1003.9 hPa Calm     93 % 0 mm
07:19 11.3 °C 10.2 °C 1003.9 hPa Calm     93 % 0 mm
07:24 11.3 °C 10.2 °C 1003.9 hPa Calm     93 % 0 mm
07:29 11.3 °C 10.2 °C 1003.9 hPa Calm     93 % 0 mm
07:34 11.5 °C 10.6 °C 1003.9 hPa SW 5.6 km/h 2.3 km/h 94 % 0 mm
07:39 11.7 °C 10.7 °C 1003.9 hPa SW 1.9 km/h 1.1 km/h 94 % 0 mm
07:44 11.8 °C 10.8 °C 1003.9 hPa SW 5.6 km/h 3.1 km/h 94 % 0 mm
07:49 11.9 °C 10.9 °C 1003.9 hPa SW 5.6 km/h 3.7 km/h 94 % 0 mm
07:54 12 °C 11.1 °C 1003.9 hPa SW 5.6 km/h 3.4 km/h 94 % 0 mm
07:59 12.1 °C 11 °C 1003.9 hPa SW 5.6 km/h 4.2 km/h 93 % 0 mm
08:04 12.4 °C 11.4 °C 1003.6 hPa SW 9.3 km/h 6.6 km/h 94 % 0 mm
08:09 12.8 °C 11.7 °C 1003.6 hPa SW 8 km/h 7.4 km/h 93 % 0 mm
08:14 13.1 °C 12 °C 1003.6 hPa SW 9.3 km/h 6 km/h 93 % 0 mm
08:19 13.5 °C 12.4 °C 1003.6 hPa SW 3.2 km/h 1.1 km/h 93 % 0 mm
08:24 13.9 °C 12.7 °C 1003.6 hPa SW 6.4 km/h 3.1 km/h 92 % 0 mm
08:29 14.4 °C 12.8 °C 1003.3 hPa SW 9.7 km/h 3.9 km/h 90 % 0 mm
08:34 14.7 °C 12.9 °C 1003.3 hPa West 11.1 km/h 7.9 km/h 89 % 0 mm
08:39 15.1 °C 12.9 °C 1003.6 hPa West 11.1 km/h 5.1 km/h 87 % 0 mm
08:44 15.4 °C 12.9 °C 1003.6 hPa West 9.3 km/h 9.3 km/h 85 % 0 mm
08:49 15.9 °C 13.2 °C 1003.6 hPa West 11.3 km/h 4.7 km/h 84 % 0 mm
08:54 16.2 °C 12.9 °C 1003.6 hPa WNW 9.7 km/h 8.7 km/h 81 % 0 mm
08:59 16.3 °C 12.9 °C 1003.6 hPa North 16.7 km/h 7.1 km/h 80 % 0 mm
09:04 16.4 °C 12.7 °C 1003.6 hPa NW 14.8 km/h 10.3 km/h 79 % 0 mm
09:09 16.6 °C 12.9 °C 1003.6 hPa NNW 14.8 km/h 9 km/h 79 % 0 mm
09:14 16.7 °C 12.9 °C 1003.6 hPa NNW 11.1 km/h 11.9 km/h 78 % 0 mm
09:19 16.9 °C 13.1 °C 1003.6 hPa NNW 16.7 km/h 10.6 km/h 78 % 0 mm
09:24 17.2 °C 13.3 °C 1003.6 hPa NNW 9.7 km/h 11.9 km/h 78 % 0 mm
09:29 17.3 °C 13.2 °C 1003.3 hPa NW 16.1 km/h 14.6 km/h 77 % 0 mm
09:34 17.2 °C 13.2 °C 1003.3 hPa NW 24.1 km/h 14.3 km/h 77 % 0 mm
09:39 17.2 °C 13.2 °C 1003.3 hPa NNW 20.4 km/h 15.9 km/h 77 % 0 mm
09:44 17.4 °C 13.2 °C 1003.3 hPa NW 22.2 km/h 16.9 km/h 76 % 0 mm
09:49 17.4 °C 12.9 °C 1003.3 hPa NW 18.5 km/h 7.6 km/h 75 % 0 mm
09:54 17.7 °C 13.4 °C 1003.3 hPa NW 18.5 km/h 12.9 km/h 76 % 0 mm
09:59 18.1 °C 13.2 °C 1003.3 hPa NW 22.2 km/h 16.6 km/h 73 % 0 mm
10:04 18 °C 13.1 °C 1003.3 hPa NW 20.4 km/h 20.1 km/h 73 % 0 mm
10:09 17.9 °C 13.2 °C 1003.3 hPa NW 20.4 km/h 14.2 km/h 74 % 0 mm
10:14 18 °C 13.3 °C 1003.3 hPa NW 11.1 km/h 9.2 km/h 74 % 0 mm
10:19 17.9 °C 13.2 °C 1003.3 hPa NW 13 km/h 6.9 km/h 74 % 0 mm
10:24 18 °C 13.3 °C 1002.9 hPa WNW 13 km/h 9.8 km/h 74 % 0 mm
10:29 18.1 °C 13.3 °C 1003.3 hPa NNW 13 km/h 7.4 km/h 74 % 0 mm
10:34 18.7 °C 13.7 °C 1003.3 hPa WNW 18.5 km/h 16.3 km/h 73 % 0 mm
10:39 18.6 °C 13.4 °C 1003.3 hPa NW 18.5 km/h 11.3 km/h 72 % 0 mm
10:44 18.7 °C 13.5 °C 1002.9 hPa NNW 18.5 km/h 14.3 km/h 72 % 0 mm
10:49 18.8 °C 13.6 °C 1002.9 hPa NW 9.3 km/h 5.6 km/h 72 % 0 mm
10:54 18.9 °C 13.8 °C 1002.9 hPa NW 14.8 km/h 10.9 km/h 72 % 0 mm
10:59 18.6 °C 13.4 °C 1002.9 hPa WNW 24.1 km/h 16.9 km/h 72 % 0 mm
11:04 18.5 °C 13.6 °C 1002.9 hPa NNW 22.2 km/h 11.4 km/h 73 % 0 mm
11:09 18.7 °C 13.8 °C 1002.9 hPa NNW 11.1 km/h 8 km/h 73 % 0 mm
11:14 18.8 °C 13.6 °C 1002.6 hPa NW 20.9 km/h 13.2 km/h 72 % 0 mm
11:19 18.7 °C 13.5 °C 1002.9 hPa NW 27.8 km/h 15.1 km/h 72 % 0 mm
11:24 18.7 °C 13.5 °C 1002.6 hPa NNW 22.2 km/h 13.8 km/h 72 % 0 mm
11:29 18.8 °C 13.4 °C 1002.6 hPa NNW 20.4 km/h 13.4 km/h 71 % 0 mm
11:34 18.9 °C 13.7 °C 1002.6 hPa NNW 18.5 km/h 15.6 km/h 72 % 0 mm
11:39 19.1 °C 13.7 °C 1002.6 hPa NW 16.7 km/h 11.6 km/h 71 % 0 mm
11:44 19.4 °C 14 °C 1002.6 hPa North 17.7 km/h 12.7 km/h 71 % 0 mm
11:49 19.4 °C 14 °C 1002.6 hPa NNW 18.5 km/h 9.7 km/h 71 % 0 mm
11:54 19.4 °C 14 °C 1002.3 hPa NW 18.5 km/h 11.7 km/h 71 % 0 mm
11:59 19.8 °C 14.4 °C 1002.3 hPa WNW 13 km/h 13.5 km/h 71 % 0 mm
12:04 19.8 °C 13.4 °C 1002.3 hPa NW 18.5 km/h 17.1 km/h 67 % 0 mm
12:09 19.5 °C 13.4 °C 1002.3 hPa WNW 18.5 km/h 11.7 km/h 68 % 0 mm
12:14 19.4 °C 13.4 °C 1002.3 hPa NNW 25.9 km/h 17.2 km/h 68 % 0 mm
12:19 19.5 °C 13.4 °C 1001.9 hPa NNW 22.2 km/h 13.7 km/h 68 % 0 mm
12:24 19.6 °C 13.5 °C 1001.9 hPa NW 17.7 km/h 12.7 km/h 68 % 0 mm
12:29 19.6 °C 13.7 °C 1001.6 hPa NW 14.8 km/h 11.7 km/h 69 % 0 mm
12:34 19.6 °C 13.8 °C 1001.9 hPa NNW 14.5 km/h 10.3 km/h 69 % 0 mm
12:39 19.7 °C 13.6 °C 1001.6 hPa WNW 16.7 km/h 16.3 km/h 68 % 0 mm
12:44 19.8 °C 13.8 °C 1001.6 hPa NW 20.9 km/h 17.7 km/h 68 % 0 mm
12:49 19.9 °C 13.8 °C 1001.6 hPa NW 22.2 km/h 11.4 km/h 68 % 0 mm
12:54 20.1 °C 14.2 °C 1001.6 hPa North 20.4 km/h 12.4 km/h 69 % 0 mm
12:59 20 °C 13.9 °C 1001.6 hPa NNW 27.8 km/h 16.6 km/h 68 % 0 mm
13:04 20 °C 14.1 °C 1001.2 hPa NW 20.9 km/h 16.3 km/h 69 % 0 mm
13:09 20.3 °C 14.2 °C 1001.2 hPa NNW 14.8 km/h 11.9 km/h 68 % 0 mm
13:14 20.5 °C 13.9 °C 1001.2 hPa NW 24.1 km/h 14 km/h 66 % 0 mm
13:19 20.7 °C 13.8 °C 1001.2 hPa North 25.9 km/h 12.1 km/h 65 % 0 mm
13:24 20.7 °C 13.9 °C 1000.9 hPa NW 14.8 km/h 10.8 km/h 65 % 0 mm
13:29 20.9 °C 13.8 °C 1000.9 hPa NNW 20.4 km/h 15.1 km/h 64 % 0 mm
13:34 20.7 °C 13.7 °C 1000.9 hPa NW 18.5 km/h 10.5 km/h 64 % 0 mm
13:39 20.8 °C 13.7 °C 1000.6 hPa NW 14.8 km/h 9 km/h 64 % 0 mm
13:44 20.7 °C 13.6 °C 1000.6 hPa WNW 24.1 km/h 19 km/h 64 % 0 mm
13:49 20.8 °C 13.5 °C 1000.6 hPa NW 25.7 km/h 22.9 km/h 63 % 0 mm
13:54 20.9 °C 13.8 °C 1000.6 hPa WNW 14.8 km/h 8.5 km/h 64 % 0 mm
13:59 21.1 °C 13.6 °C 1000.6 hPa NW 22.2 km/h 15.4 km/h 62 % 0 mm
14:04 21.3 °C 13.7 °C 1000.6 hPa North 20.4 km/h 9.2 km/h 62 % 0 mm
14:09 21.4 °C 13.8 °C 1000.2 hPa North 16.7 km/h 5 km/h 62 % 0 mm
14:14 21.5 °C 13.7 °C 1000.2 hPa NW 14.5 km/h 12.2 km/h 61 % 0 mm
14:19 21.6 °C 13.5 °C 1000.2 hPa NW 22.2 km/h 17.9 km/h 60 % 0 mm
14:24 21.6 °C 13.4 °C 1000.2 hPa WNW 17.7 km/h 10.9 km/h 60 % 0 mm
14:29 21.6 °C 13.4 °C 1000.2 hPa NW 20.4 km/h 15.9 km/h 60 % 0 mm
14:34 21.4 °C 13.3 °C 1000.2 hPa WNW 22.2 km/h 14.3 km/h 60 % 0 mm
14:39 21.4 °C 13.3 °C 1000.2 hPa WNW 19.3 km/h 15.9 km/h 60 % 0 mm
14:44 21.4 °C 13.6 °C 1000.2 hPa NNW 18.5 km/h 13 km/h 61 % 0 mm
14:49 21.4 °C 13.3 °C 1000.2 hPa NW 24.1 km/h 16.1 km/h 60 % 0 mm
14:54 21.3 °C 13.5 °C 999.9 hPa North 18.5 km/h 14.6 km/h 61 % 0 mm
14:59 21.6 °C 13.8 °C 999.9 hPa WNW 20.4 km/h 14.2 km/h 61 % 0 mm
15:04 21.7 °C 13.6 °C 999.9 hPa WNW 20.4 km/h 13.7 km/h 60 % 0 mm
15:09 21.7 °C 13.8 °C 999.5 hPa WNW 22.2 km/h 12.7 km/h 61 % 0 mm
15:14 21.9 °C 13.5 °C 999.5 hPa NNW 22.2 km/h 16.4 km/h 59 % 0 mm
15:19 22.1 °C 14 °C 999.5 hPa NW 29.6 km/h 14.2 km/h 60 % 0 mm
15:24 22.5 °C 13.6 °C 999.5 hPa WNW 29.6 km/h 14 km/h 57 % 0 mm
15:29 22.7 °C 13.7 °C 999.5 hPa NNW 25.9 km/h 18.2 km/h 57 % 0 mm
15:34 22.4 °C 13.7 °C 999.2 hPa WNW 24.1 km/h 16.6 km/h 58 % 0 mm
15:39 22.9 °C 14.2 °C 999.2 hPa NW 20.4 km/h 12.6 km/h 58 % 0 mm
15:44 23.4 °C 14.1 °C 999.2 hPa NW 29 km/h 15.3 km/h 56 % 0 mm
15:49 22.9 °C 13.9 °C 999.2 hPa NW 24.1 km/h 22.5 km/h 57 % 0 mm
15:54 22.7 °C 13.7 °C 998.9 hPa NW 22.2 km/h 16.4 km/h 57 % 0 mm
15:59 22.6 °C 14.1 °C 998.9 hPa NNW 18.5 km/h 12.7 km/h 59 % 0 mm
16:04 22.9 °C 14.2 °C 998.9 hPa North 27.4 km/h 15.9 km/h 58 % 0 mm
16:09 23.2 °C 14.2 °C 998.9 hPa NW 27.8 km/h 15.1 km/h 57 % 0 mm
16:14 23.2 °C 14.2 °C 998.9 hPa North 25.7 km/h 18.5 km/h 57 % 0 mm
16:19 22.7 °C 14 °C 998.9 hPa NW 25.9 km/h 20.1 km/h 58 % 0 mm
16:24 22.6 °C 14.1 °C 998.9 hPa NW 27.8 km/h 17.7 km/h 59 % 0 mm
16:29 22.4 °C 14.2 °C 998.5 hPa NW 24.1 km/h 16.3 km/h 60 % 0 mm
16:34 22.6 °C 14.4 °C 998.5 hPa NW 24.1 km/h 14 km/h 60 % 0 mm
16:39 22.9 °C 14.2 °C 998.5 hPa NW 20.9 km/h 17.9 km/h 58 % 0 mm
16:44 23 °C 14.3 °C 998.2 hPa NW 25.9 km/h 14.2 km/h 58 % 0 mm
16:49 22.9 °C 14.2 °C 998.2 hPa NW 22.5 km/h 18.3 km/h 58 % 0 mm
16:54 22.3 °C 14.2 °C 998.5 hPa NW 31.5 km/h 20.6 km/h 60 % 0 mm
16:59 22.2 °C 14.3 °C 998.2 hPa WNW 27.8 km/h 16.3 km/h 61 % 0 mm
17:04 22.1 °C 14.4 °C 998.2 hPa NW 24.1 km/h 17.4 km/h 62 % 0 mm
17:09 22.2 °C 14.6 °C 998.2 hPa WNW 18.5 km/h 13.7 km/h 62 % 0 mm
17:14 22.5 °C 14.6 °C 998.2 hPa WNW 24.1 km/h 20.6 km/h 61 % 0 mm
17:19 22.5 °C 14.6 °C 998.2 hPa WNW 18.5 km/h 13 km/h 61 % 0 mm
17:24 22.8 °C 14.6 °C 997.9 hPa NW 22.2 km/h 15.9 km/h 60 % 0 mm
17:29 22.9 °C 14.5 °C 997.9 hPa NW 14.8 km/h 9.3 km/h 59 % 0 mm
17:34 23.1 °C 14.6 °C 997.9 hPa WNW 16.7 km/h 9.8 km/h 59 % 0 mm
17:39 23 °C 14 °C 997.9 hPa NW 18.5 km/h 14.5 km/h 57 % 0 mm
17:44 22.8 °C 14.4 °C 997.5 hPa WNW 19.3 km/h 9.8 km/h 59 % 0 mm
17:49 22.8 °C 13.9 °C 997.5 hPa NW 18.5 km/h 10.6 km/h 57 % 0 mm
17:54 22.9 °C 13.9 °C 997.5 hPa North 19.3 km/h 14.3 km/h 57 % 0 mm
17:59 23.4 °C 13.8 °C 997.5 hPa NNW 24.1 km/h 14.6 km/h 55 % 0 mm
18:04 23.4 °C 13.6 °C 997.5 hPa WNW 27.8 km/h 16.9 km/h 54 % 0 mm
18:09 23.1 °C 13.6 °C 997.5 hPa NW 30.6 km/h 9.8 km/h 55 % 0 mm
18:14 23.1 °C 13.5 °C 997.2 hPa NW 16.7 km/h 13 km/h 55 % 0 mm
18:19 22.9 °C 13.1 °C 997.2 hPa NW 31.5 km/h 16.4 km/h 54 % 0 mm
18:24 22.8 °C 13.1 °C 997.2 hPa NW 22.2 km/h 16.7 km/h 54 % 0 mm
18:29 22.8 °C 13 °C 997.2 hPa NW 16.7 km/h 13.4 km/h 54 % 0 mm
18:34 22.8 °C 13.1 °C 997.2 hPa NW 27.8 km/h 11.7 km/h 54 % 0 mm
18:39 22.8 °C 12.7 °C 997.2 hPa WNW 29.6 km/h 14.3 km/h 53 % 0 mm
18:44 22.8 °C 12.7 °C 997.2 hPa WNW 22.2 km/h 17.9 km/h 53 % 0 mm
18:49 22.9 °C 13.1 °C 996.8 hPa NW 19.3 km/h 14.3 km/h 54 % 0 mm
18:54 23 °C 13.2 °C 997.2 hPa NW 18.5 km/h 11.6 km/h 54 % 0 mm
18:59 23 °C 12.9 °C 996.8 hPa NW 31.5 km/h 15 km/h 53 % 0 mm
19:04 22.9 °C 13.1 °C 997.2 hPa NW 20.4 km/h 12.2 km/h 54 % 0 mm
19:09 22.8 °C 13 °C 996.8 hPa NW 18.5 km/h 12.2 km/h 54 % 0 mm
19:14 22.8 °C 13 °C 997.2 hPa NW 18.5 km/h 12.9 km/h 54 % 0 mm
19:19 22.8 °C 12.7 °C 997.2 hPa WNW 24.1 km/h 11.3 km/h 53 % 0 mm
19:24 22.8 °C 12.7 °C 997.2 hPa WNW 19.3 km/h 14.3 km/h 53 % 0 mm
19:29 22.8 °C 12.7 °C 997.2 hPa WNW 31.5 km/h 18.5 km/h 53 % 0 mm
19:34 22.9 °C 12.6 °C 997.2 hPa NW 31.5 km/h 15.1 km/h 52 % 0 mm
19:39 22.8 °C 12.7 °C 997.2 hPa NW 16.7 km/h 12.2 km/h 53 % 0 mm
19:44 22.7 °C 12.6 °C 997.2 hPa WNW 27.8 km/h 16.4 km/h 53 % 0 mm
19:49 22.6 °C 12.5 °C 997.2 hPa NW 20.4 km/h 13.7 km/h 53 % 0 mm
19:54 22.5 °C 12.4 °C 997.2 hPa NW 22.2 km/h 13.7 km/h 53 % 0 mm
19:59 22.4 °C 12.4 °C 996.8 hPa NW 30.6 km/h 23 km/h 53 % 0 mm
20:04 22.4 °C 12.4 °C 996.8 hPa NW 18.5 km/h 10.8 km/h 53 % 0 mm
20:09 22.4 °C 12.1 °C 996.8 hPa NW 24.1 km/h 14.2 km/h 52 % 0 mm
20:14 22.3 °C 12 °C 996.8 hPa NW 16.7 km/h 9.2 km/h 52 % 0 mm
20:19 22.3 °C 11.9 °C 996.8 hPa NW 18.5 km/h 11.4 km/h 52 % 0 mm
20:24 22.2 °C 11.8 °C 996.8 hPa NW 14.5 km/h 9 km/h 52 % 0 mm
20:29 22.1 °C 12.1 °C 996.8 hPa NW 13 km/h 8.5 km/h 53 % 0 mm
20:34 22.1 °C 12.1 °C 996.8 hPa NW 13 km/h 8.2 km/h 53 % 0 mm
20:39 21.9 °C 11.9 °C 996.8 hPa NW 13 km/h 8.4 km/h 53 % 0 mm
20:44 21.9 °C 11.9 °C 996.8 hPa NW 16.7 km/h 12.1 km/h 53 % 0 mm
20:49 21.9 °C 11.9 °C 996.8 hPa NW 9.3 km/h 7.2 km/h 53 % 0 mm
20:54 21.7 °C 11.7 °C 996.8 hPa NW 9.7 km/h 8.4 km/h 53 % 0 mm
20:59 21.6 °C 11.9 °C 996.8 hPa NW 11.1 km/h 6.6 km/h 54 % 0 mm
21:04 21.5 °C 11.8 °C 996.8 hPa NW 11.1 km/h 6.9 km/h 54 % 0 mm
21:09 21.5 °C 11.8 °C 996.8 hPa NW 20.4 km/h 13 km/h 54 % 0 mm
21:14 21.6 °C 11.9 °C 996.8 hPa NW 25.9 km/h 11.1 km/h 54 % 0 mm
21:19 21.6 °C 12.2 °C 996.8 hPa WNW 22.2 km/h 10.5 km/h 55 % 0 mm
21:24 21.4 °C 12 °C 996.8 hPa WNW 14.8 km/h 9.2 km/h 55 % 0 mm
21:29 21.2 °C 12.6 °C 996.8 hPa WNW 22.2 km/h 16.4 km/h 58 % 0 mm
21:34 20.8 °C 13.2 °C 997.2 hPa WNW 27.4 km/h 19.5 km/h 62 % 0 mm
21:39 20.5 °C 13.4 °C 997.2 hPa WNW 27.8 km/h 14.8 km/h 64 % 0 mm
21:44 20.2 °C 13.7 °C 997.2 hPa West 27.4 km/h 17.1 km/h 66 % 0 mm
21:49 20 °C 13.7 °C 997.2 hPa West 18.5 km/h 18.7 km/h 67 % 0 mm
21:54 19.8 °C 13.7 °C 997.2 hPa WNW 29.6 km/h 20.4 km/h 68 % 0 mm
21:59 19.7 °C 13.8 °C 997.2 hPa WNW 27.8 km/h 16.6 km/h 69 % 0 mm
22:04 19.6 °C 13.9 °C 997.2 hPa West 24.1 km/h 15.3 km/h 70 % 0 mm
22:09 19.4 °C 13.8 °C 997.2 hPa WNW 22.2 km/h 11.6 km/h 70 % 0 mm
22:14 19.3 °C 13.9 °C 997.2 hPa WNW 18.5 km/h 13.7 km/h 71 % 0 mm
22:19 19.2 °C 13.8 °C 997.2 hPa NW 13 km/h 9.8 km/h 71 % 0 mm
22:24 19 °C 13.6 °C 997.2 hPa NW 11.3 km/h 8.9 km/h 71 % 0 mm
22:29 18.9 °C 13.8 °C 997.2 hPa WNW 24.1 km/h 9.8 km/h 72 % 0 mm
22:34 18.9 °C 13.7 °C 997.2 hPa NW 25.9 km/h 12.9 km/h 72 % 0 mm
22:39 18.7 °C 13.6 °C 997.2 hPa WNW 29.6 km/h 13.8 km/h 72 % 0 mm
22:44 18.6 °C 13.4 °C 997.2 hPa NW 18.5 km/h 17.4 km/h 72 % 0 mm
22:45 18.6 °C 13.4 °C 997.2 hPa NW 27.8 km/h 17.4 km/h 72 % 0 mm
22:54 18.5 °C 13.3 °C 997.2 hPa NW 27.8 km/h 20.9 km/h 72 % 0 mm
22:59 18.4 °C 13.3 °C 997.2 hPa WNW 20.4 km/h 18.3 km/h 72 % 0 mm
23:04 18.3 °C 13.2 °C 997.2 hPa NW 18.5 km/h 11.7 km/h 72 % 0 mm
23:09 18.2 °C 13.3 °C 996.8 hPa WNW 19.3 km/h 12.6 km/h 73 % 0 mm
23:14 18.1 °C 13.2 °C 996.8 hPa WNW 18.5 km/h 10.9 km/h 73 % 0 mm
23:19 18 °C 13.1 °C 996.5 hPa WNW 18.5 km/h 13.5 km/h 73 % 0 mm
23:24 17.9 °C 13.1 °C 996.5 hPa WNW 22.2 km/h 10.9 km/h 73 % 0 mm
23:29 17.8 °C 12.9 °C 996.5 hPa NW 16.7 km/h 12.1 km/h 73 % 0 mm
23:34 17.8 °C 12.9 °C 996.2 hPa NNW 16.7 km/h 14.6 km/h 73 % 0 mm
23:39 17.7 °C 12.8 °C 996.2 hPa NW 22.5 km/h 17.2 km/h 73 % 0 mm
23:44 17.7 °C 12.8 °C 996.2 hPa WNW 13 km/h 9.3 km/h 73 % 0 mm
23:49 17.6 °C 12.7 °C 996.2 hPa NW 14.8 km/h 10.1 km/h 73 % 0 mm
23:54 17.6 °C 12.7 °C 996.2 hPa NW 18.5 km/h 13 km/h 73 % 0 mm
23:59 17.6 °C 12.7 °C 996.2 hPa NW 14.8 km/h 12.7 km/h 73 % 0 mm
Ararat Weather
Compliments of Weather Underground - 2.5 mb
Click here to send mail.


ABOUT

Live weather data from Ararat, Victoria, Australia, 3377
Data uploaded from Cumulus every 5 minutes to Weather Underground.
This site then downloads the raw data for formatting and display.
Metric and imperial data can be displayed. Graphs and historical data available.
Includes Sun and Moon times and rain image live from BOM.

Check out Ararat Weather on Facebook, Twitter and Google +

Help support ongoing costs by checking out the ads





Follow @AraratWeather